Location: Brompton
(51.4000°N, 0.5333°E)
Time: 06:20:49
(UTC+00:00)

N. Korean satellite - Visible Passes

Search period start: 24 January 2022 00:00
Search period end: 03 February 2022 00:00
Orbit: 447 x 491 km, 97.3° (Epoch: 23 January)

Date Brightness Start Highest point End Pass type
(mag) Time Alt. Az. Time Alt. Az. Time Alt. Az.
24 Jan 7.0 05:11:09 10° NNE 05:14:46 62° E 05:15:57 38° SSE visible
24 Jan 8.3 06:45:25 10° NNW 06:47:30 15° WNW 06:49:34 10° W visible
24 Jan 9.7 17:24:30 10° SW 17:26:37 15° W 17:28:45 10° NW visible
25 Jan 8.5 04:42:15 10° NNE 04:45:29 29° E 04:46:52 22° SE visible
25 Jan 7.5 06:15:27 10° N 06:18:34 26° WNW 06:20:56 14° WSW visible
26 Jan 9.6 04:13:52 10° NE 04:16:03 15° E 04:17:47 12° ESE visible
26 Jan 6.6 05:45:57 10° N 05:49:30 53° WNW 05:51:51 19° SW visible
27 Jan 6.7 05:16:40 10° NNE 05:20:19 72° ESE 05:22:47 20° S visible
27 Jan 8.4 06:51:12 10° NNW 06:52:58 13° WNW 06:54:44 10° W visible
27 Jan 9.9 17:30:22 10° WSW 17:32:10 13° W 17:34:00 10° WNW visible
28 Jan 8.3 04:47:39 10° NNE 04:51:00 33° E 04:53:42 14° SSE visible
28 Jan 7.7 06:21:04 10° N 06:24:01 24° WNW 06:26:57 10° WSW visible
29 Jan 9.4 04:19:05 10° NE 04:21:34 17° E 04:24:01 10° SE visible
29 Jan 6.8 05:51:25 10° N 05:54:57 46° WNW 05:58:25 10° SW visible
30 Jan 6.5 05:22:04 10° NNE 05:25:44 83° ESE 05:29:22 10° SSW visible
30 Jan 8.5 06:56:57 10° NW 06:58:18 12° WNW 06:59:39 10° W visible
30 Jan 10.0 17:36:12 10° WSW 17:37:36 12° W 17:39:01 10° WNW visible
31 Jan 8.0 04:52:57 10° NNE 04:56:24 38° E 04:59:48 10° SSE visible
31 Jan 7.9 06:26:32 10° NNW 06:29:20 21° WNW 06:32:07 10° WSW visible
01 Feb 9.3 04:24:14 10° NE 04:26:56 19° E 04:29:36 10° SE visible
01 Feb 7.0 05:56:47 10° N 06:00:14 40° WNW 06:03:38 10° SW visible
02 Feb 6.4 05:27:21 10° NNE 05:31:00 85° WNW 05:34:38 10° SSW visible
02 Feb 10.3 17:42:09 10° W 17:42:55 10° W 17:43:40 10° WNW visible
